QPF
0.00 0.00 0.00 0.00 0.00 0.00 0.00 0.00 0.00 0.00 0.00 0.00 0.00 0.00 0.00 0.00 0.00 0.00 0.00 0.00 0.00 0.00 0.00 0.00 0.00 0.00 0.01 0.01 0.02 0.03 0.03 0.04 0.04 0.04 0.04 0.04 0.03 0.03 0.03 0.04 0.03 0.04 0.05 0.06
0.00 0.00 0.00 0.00 0.00 0.00 0.00 0.00 0.00 0.00 0.00 0.00 0.00 0.00 0.00 0.00 0.00 0.00 0.00 0.00 0.00 0.00 0.00 0.00 0.00 0.01 0.01 0.01 0.02 0.03 0.03 0.03 0.03 0.04 0.04 0.03 0.03 0.02 0.02 0.02 0.04 0.05 0.06 0.05
0.00 0.00 0.00 0.00 0.00 0.00 0.00 0.00 0.00 0.00 0.00 0.00 0.00 0.00 0.01 0.01 0.00 0.00 0.00 0.00 0.00 0.00 0.00 0.00 0.00 0.01 0.01 0.01 0.02 0.02 0.02 0.03 0.03 0.03 0.06 0.07 0.06 0.04 0.03 0.03 0.03 0.05 0.07 0.06
0.00 0.00 0.00 0.00 0.00 0.00 0.00 0.00 0.00 0.00 0.00 0.00 0.00 0.01 0.02 0.02 0.01 0.00 0.00 0.01 0.00 0.00 0.00 0.00 0.00 0.01 0.01 0.01 0.02 0.02 0.02 0.02 0.02 0.02 0.04 0.07 0.08 0.05 0.03 0.02 0.02 0.04 0.05 0.04
0.00 0.00 0.00 0.00 0.00 0.00 0.00 0.00 0.00 0.00 0.00 0.00 0.01 0.01 0.01 0.02 0.01 0.00 0.00 0.00 0.00 0.00 0.00 0.00 0.00 0.01 0.01 0.01 0.02 0.02 0.02 0.01 0.01 0.02 0.02 0.04 0.08 0.08 0.04 0.02 0.02 0.03 0.04 0.04
0.00 0.00 0.00 0.00 0.00 0.00 0.00 0.00 0.00 0.00 0.01 0.01 0.01 0.01 0.01 0.00 0.01 0.01 0.00 0.00 0.00 0.01 0.01 0.01 0.01 0.01 0.01 0.02 0.02 0.02 0.01 0.01 0.01 0.01 0.02 0.02 0.04 0.07 0.06 0.04 0.02 0.02 0.03 0.03
0.01 0.00 0.00 0.00 0.00 0.00 0.00 0.00 0.01 0.01 0.01 0.01 0.01 0.01 0.01 0.01 0.01 0.01 0.01 0.00 0.01 0.01 0.01 0.01 0.01 0.01 0.01 0.02 0.02 0.01 0.01 0.00 0.00 0.01 0.01 0.02 0.03 0.04 0.06 0.05 0.04 0.03 0.02 0.03
0.01 0.01 0.00 0.00 0.00 0.00 0.00 0.00 0.01 0.01 0.00 0.00 0.01 0.01 0.01 0.01 0.01 0.01 0.01 0.00 0.01 0.01 0.01 0.01 0.01 0.01 0.02 0.02 0.01 0.01 0.00 0.00 0.00 0.00 0.01 0.01 0.02 0.04 0.05 0.05 0.05 0.04 0.02 0.01
0.00 0.00 0.00 0.00 0.00 0.00 0.00 0.00 0.00 0.01 0.01 0.00 0.01 0.01 0.01 0.00 0.00 0.01 0.01 0.01 0.01 0.01 0.01 0.01 0.01 0.01 0.01 0.01 0.01 0.01 0.00 0.01 0.01 0.00 0.01 0.01 0.01 0.03 0.04 0.05 0.05 0.04 0.02 0.01
0.00 0.01 0.00 0.00 0.00 0.00 0.00 0.00 0.01 0.02 0.01 0.00 0.00 0.01 0.01 0.00 0.00 0.00 0.01 0.01 0.01 0.01 0.01 0.01 0.01 0.01 0.01 0.00 0.00 0.00 0.00 0.00 0.01 0.00 0.00 0.01 0.01 0.02 0.03 0.05 0.06 0.04 0.02 0.01
0.01 0.01 0.01 0.00 0.01 0.01 0.00 0.01 0.01 0.01 0.01 0.00 0.00 0.01 0.01 0.00 0.00 0.00 0.01 0.01 0.01 0.01 0.01 0.01 0.01 0.01 0.00 0.00 0.00 0.00 0.00 0.00 0.00 0.00 0.00 0.00 0.01 0.02 0.02 0.04 0.05 0.05 0.04 0.02
0.01 0.01 0.01 0.00 0.00 0.00 0.00 0.00 0.00 0.01 0.00 0.00 0.00 0.00 0.00 0.00 0.00 0.00 0.00 0.00 0.00 0.01 0.01 0.01 0.01 0.00 0.00 0.00 0.00 0.00 0.00 0.00 0.00 0.00 0.00 0.00 0.00 0.01 0.02 0.02 0.04 0.06 0.06 0.05
0.01 0.02 0.02 0.01 0.01 0.01 0.01 0.01 0.00 0.01 0.01 0.00 0.00 0.00 0.00 0.00 0.00 0.00 0.00 0.00 0.00 0.00 0.00 0.00 0.00 0.00 0.00 0.00 0.00 0.00 0.00 0.00 0.00 0.00 0.00 0.00 0.00 0.00 0.01 0.01 0.02 0.04 0.05 0.06
0.03 0.04 0.02 0.01 0.01 0.01 0.01 0.01 0.00 0.01 0.02 0.01 0.00 0.00 0.00 0.00 0.00 0.00 0.00 0.00 0.00 0.00 0.00 0.00 0.00 0.00 0.00 0.00 0.00 0.00 0.00 0.00 0.00 0.00 0.00 0.00 0.00 0.01 0.01 0.01 0.01 0.02 0.03 0.05
0.03 0.05 0.02 0.01 0.00 0.00 0.01 0.01 0.00 0.00 0.01 0.01 0.00 0.00 0.00 0.00 0.00 0.00 0.00 0.00 0.00 0.00 0.00 0.00 0.00 0.00 0.00 0.00 0.00 0.00 0.00 0.00 0.00 0.00 0.00 0.01 0.01 0.01 0.01 0.01 0.01 0.01 0.01 0.02
0.03 0.04 0.02 0.01 0.00 0.00 0.00 0.00 0.00 0.00 0.00 0.00 0.00 0.00 0.00 0.00 0.00 0.00 0.00 0.00 0.00 0.00 0.00 0.00 0.00 0.00 0.00 0.00 0.00 0.00 0.00 0.00 0.00 0.00 0.01 0.01 0.01 0.01 0.01 0.01 0.01 0.01 0.01 0.01
0.04 0.04 0.03 0.02 0.01 0.01 0.01 0.00 0.00 0.00 0.00 0.00 0.00 0.00 0.00 0.00 0.00 0.00 0.00 0.00 0.00 0.00 0.00 0.00 0.00 0.00 0.00 0.00 0.00 0.00 0.00 0.00 0.00 0.00 0.00 0.00 0.01 0.01 0.01 0.01 0.01 0.01 0.01 0.01
0.04 0.04 0.05 0.04 0.02 0.03 0.01 0.00 0.00 0.00 0.00 0.00 0.00 0.00 0.00 0.00 0.00 0.00 0.00 0.00 0.00 0.00 0.00 0.00 0.00 0.00 0.00 0.00 0.00 0.00 0.00 0.00 0.00 0.00 0.00 0.00 0.00 0.00 0.01 0.01 0.01 0.01 0.01 0.01
0.02 0.04 0.07 0.06 0.04 0.02 0.01 0.00 0.00 0.00 0.01 0.01 0.00 0.00 0.00 0.00 0.00 0.00 0.00 0.00 0.00 0.00 0.00 0.00 0.00 0.00 0.00 0.00 0.00 0.00 0.00 0.00 0.00 0.00 0.00 0.00 0.00 0.00 0.00 0.00 0.00 0.01 0.01 0.01
0.02 0.03 0.07 0.07 0.05 0.02 0.01 0.01 0.01 0.01 0.02 0.01 0.01 0.01 0.01 0.01 0.01 0.01 0.01 0.00 0.00 0.00 0.00 0.00 0.00 0.00 0.00 0.00 0.00 0.00 0.00 0.00 0.00 0.00 0.00 0.00 0.00 0.00 0.01 0.00 0.00 0.00 0.00 0.01
0.05 0.07 0.08 0.05 0.04 0.02 0.01 0.01 0.01 0.02 0.02 0.01 0.01 0.01 0.01 0.01 0.01 0.01 0.01 0.01 0.00 0.00 0.00 0.00 0.00 0.00 0.00 0.00 0.00 0.00 0.00 0.00 0.00 0.00 0.00 0.00 0.00 0.00 0.01 0.01 0.00 0.01 0.01 0.01
0.04 0.05 0.05 0.05 0.05 0.03 0.01 0.01 0.02 0.02 0.01 0.01 0.01 0.01 0.02 0.01 0.01 0.01 0.00 0.00 0.00 0.00 0.00 0.00 0.00 0.00 0.00 0.00 0.00 0.00 0.00 0.00 0.00 0.00 0.00 0.00 0.00 0.01 0.01 0.01 0.01 0.01 0.01 0.01
0.02 0.03 0.03 0.04 0.04 0.02 0.01 0.01 0.02 0.01 0.01 0.01 0.01 0.01 0.01 0.01 0.00 0.00 0.00 0.00 0.00 0.00 0.00 0.00 0.00 0.00 0.00 0.00 0.00 0.00 0.00 0.00 0.00 0.00 0.00 0.00 0.01 0.01 0.01 0.01 0.01 0.01 0.01 0.01
0.02 0.02 0.02 0.03 0.03 0.02 0.01 0.01 0.01 0.01 0.01 0.01 0.01 0.01 0.01 0.01 0.01 0.00 0.00 0.00 0.00 0.00 0.00 0.00 0.00 0.00 0.00 0.00 0.00 0.00 0.00 0.00 0.00 0.00 0.01 0.01 0.01 0.01 0.01 0.01 0.01 0.01 0.01 0.02
0.02 0.02 0.02 0.02 0.02 0.01 0.01 0.01 0.01 0.01 0.01 0.01 0.01 0.01 0.01 0.01 0.01 0.01 0.01 0.01 0.01 0.00 0.00 0.00 0.00 0.00 0.01 0.01 0.01 0.01 0.01 0.01 0.01 0.01 0.01 0.01 0.01 0.01 0.01 0.01 0.01 0.01 0.01 0.01
0.02 0.03 0.03 0.03 0.02 0.02 0.02 0.01 0.01 0.01 0.01 0.01 0.01 0.01 0.01 0.01 0.01 0.02 0.02 0.01 0.01 0.01 0.00 0.00 0.00 0.00 0.00 0.00 0.01 0.01 0.01 0.01 0.01 0.01 0.01 0.01 0.01 0.01 0.01 0.01 0.01 0.01 0.01 0.02
MSLP
1018.56 1018.41 1018.29 1018.22 1018.20 1018.23 1018.30 1018.38 1018.42 1018.41 1018.31 1018.13 1017.88 1017.60 1017.33 1017.11 1017.00 1017.01 1017.15 1017.39 1017.69 1018.00 1018.27 1018.46 1018.55 1018.53 1018.43 1018.27 1018.10 1017.96 1017.89 1017.92 1018.05 1018.29 1018.61 1018.99 1019.41 1019.85 1020.29 1020.71 1021.12 1021.52 1021.92 1022.33
1018.74 1018.58 1018.45 1018.37 1018.35 1018.40 1018.48 1018.58 1018.64 1018.65 1018.56 1018.39 1018.14 1017.85 1017.57 1017.36 1017.26 1017.30 1017.47 1017.74 1018.08 1018.42 1018.70 1018.88 1018.92 1018.83 1018.63 1018.37 1018.08 1017.84 1017.69 1017.66 1017.75 1017.97 1018.29 1018.68 1019.10 1019.53 1019.96 1020.36 1020.75 1021.14 1021.53 1021.93
1018.96 1018.79 1018.65 1018.56 1018.53 1018.58 1018.68 1018.79 1018.87 1018.88 1018.80 1018.62 1018.36 1018.05 1017.77 1017.56 1017.47 1017.53 1017.75 1018.07 1018.46 1018.84 1019.15 1019.32 1019.33 1019.18 1018.90 1018.53 1018.15 1017.81 1017.56 1017.46 1017.51 1017.69 1017.99 1018.37 1018.79 1019.21 1019.62 1020.00 1020.37 1020.73 1021.10 1021.50
1019.20 1019.02 1018.86 1018.77 1018.75 1018.80 1018.90 1019.02 1019.11 1019.12 1019.03 1018.82 1018.53 1018.20 1017.89 1017.67 1017.58 1017.67 1017.92 1018.30 1018.75 1019.19 1019.54 1019.74 1019.75 1019.57 1019.24 1018.80 1018.33 1017.90 1017.57 1017.40 1017.38 1017.52 1017.78 1018.13 1018.53 1018.92 1019.30 1019.66 1019.99 1020.32 1020.67 1021.04
1019.44 1019.25 1019.10 1019.00 1018.99 1019.05 1019.18 1019.31 1019.39 1019.39 1019.27 1019.03 1018.68 1018.30 1017.94 1017.68 1017.57 1017.66 1017.94 1018.37 1018.89 1019.40 1019.82 1020.08 1020.13 1019.97 1019.63 1019.16 1018.64 1018.15 1017.76 1017.52 1017.44 1017.52 1017.73 1018.02 1018.37 1018.73 1019.06 1019.37 1019.67 1019.96 1020.26 1020.61
1019.67 1019.48 1019.33 1019.25 1019.26 1019.35 1019.50 1019.64 1019.73 1019.71 1019.54 1019.24 1018.83 1018.36 1017.92 1017.59 1017.44 1017.51 1017.80 1018.26 1018.83 1019.42 1019.93 1020.28 1020.41 1020.32 1020.03 1019.58 1019.07 1018.56 1018.14 1017.84 1017.71 1017.72 1017.86 1018.10 1018.38 1018.67 1018.95 1019.21 1019.45 1019.69 1019.95 1020.24
1019.85 1019.67 1019.54 1019.50 1019.54 1019.68 1019.85 1020.02 1020.10 1020.06 1019.85 1019.47 1018.97 1018.41 1017.87 1017.45 1017.22 1017.24 1017.51 1017.98 1018.60 1019.25 1019.86 1020.31 1020.56 1020.58 1020.39 1020.03 1019.57 1019.10 1018.68 1018.36 1018.19 1018.14 1018.22 1018.38 1018.59 1018.81 1019.01 1019.21 1019.39 1019.57 1019.77 1020.00
1019.98 1019.81 1019.72 1019.72 1019.81 1019.99 1020.21 1020.40 1020.48 1020.41 1020.15 1019.71 1019.12 1018.45 1017.81 1017.29 1016.97 1016.92 1017.14 1017.60 1018.23 1018.94 1019.63 1020.19 1020.57 1020.73 1020.67 1020.44 1020.09 1019.69 1019.32 1019.02 1018.83 1018.75 1018.76 1018.85 1018.98 1019.13 1019.26 1019.39 1019.50 1019.62 1019.75 1019.93
1020.05 1019.91 1019.85 1019.90 1020.05 1020.28 1020.53 1020.73 1020.82 1020.72 1020.42 1019.91 1019.24 1018.49 1017.76 1017.15 1016.75 1016.62 1016.78 1017.21 1017.83 1018.57 1019.32 1019.97 1020.46 1020.76 1020.85 1020.76 1020.54 1020.26 1019.97 1019.72 1019.54 1019.45 1019.43 1019.46 1019.53 1019.60 1019.67 1019.73 1019.78 1019.84 1019.92 1020.02
1020.09 1019.99 1019.98 1020.07 1020.27 1020.52 1020.79 1020.99 1021.06 1020.93 1020.59 1020.04 1019.33 1018.53 1017.74 1017.07 1016.62 1016.43 1016.54 1016.92 1017.51 1018.24 1019.01 1019.71 1020.29 1020.69 1020.91 1020.97 1020.89 1020.73 1020.54 1020.37 1020.24 1020.16 1020.13 1020.13 1020.15 1020.17 1020.19 1020.19 1020.19 1020.20 1020.22 1020.26
1020.17 1020.12 1020.15 1020.28 1020.49 1020.74 1020.98 1021.15 1021.17 1021.00 1020.62 1020.04 1019.32 1018.52 1017.73 1017.07 1016.61 1016.41 1016.48 1016.82 1017.37 1018.05 1018.79 1019.50 1020.10 1020.56 1020.87 1021.03 1021.07 1021.02 1020.94 1020.86 1020.79 1020.75 1020.73 1020.74 1020.74 1020.74 1020.72 1020.69 1020.66 1020.63 1020.61 1020.59
1020.38 1020.38 1020.45 1020.59 1020.78 1020.98 1021.14 1021.21 1021.14 1020.90 1020.47 1019.88 1019.18 1018.43 1017.71 1017.11 1016.71 1016.54 1016.62 1016.93 1017.43 1018.05 1018.73 1019.38 1019.95 1020.41 1020.74 1020.95 1021.07 1021.12 1021.13 1021.13 1021.14 1021.15 1021.18 1021.20 1021.22 1021.21 1021.20 1021.16 1021.11 1021.06 1021.01 1020.96
1020.80 1020.87 1020.97 1021.09 1021.21 1021.29 1021.31 1021.23 1021.01 1020.65 1020.15 1019.55 1018.88 1018.21 1017.61 1017.14 1016.86 1016.77 1016.90 1017.22 1017.68 1018.23 1018.81 1019.36 1019.85 1020.25 1020.55 1020.76 1020.90 1021.01 1021.09 1021.16 1021.24 1021.32 1021.41 1021.48 1021.53 1021.55 1021.55 1021.53 1021.48 1021.43 1021.37 1021.29
1021.49 1021.63 1021.74 1021.80 1021.80 1021.70 1021.51 1021.20 1020.78 1020.26 1019.66 1019.03 1018.41 1017.85 1017.40 1017.10 1016.97 1017.02 1017.24 1017.58 1018.02 1018.50 1018.98 1019.42 1019.79 1020.08 1020.31 1020.48 1020.61 1020.73 1020.85 1020.98 1021.13 1021.28 1021.43 1021.56 1021.66 1021.73 1021.77 1021.77 1021.76 1021.72 1021.66 1021.58
1022.42 1022.62 1022.71 1022.68 1022.50 1022.18 1021.72 1021.14 1020.47 1019.75 1019.03 1018.35 1017.76 1017.31 1017.01 1016.90 1016.96 1017.17 1017.50 1017.91 1018.36 1018.79 1019.17 1019.49 1019.74 1019.92 1020.05 1020.15 1020.25 1020.37 1020.51 1020.68 1020.88 1021.09 1021.31 1021.50 1021.67 1021.79 1021.88 1021.93 1021.95 1021.93 1021.89 1021.83
1023.48 1023.70 1023.74 1023.57 1023.19 1022.61 1021.87 1020.99 1020.05 1019.12 1018.26 1017.52 1016.96 1016.60 1016.46 1016.53 1016.78 1017.16 1017.62 1018.11 1018.58 1018.99 1019.31 1019.55 1019.69 1019.78 1019.82 1019.86 1019.92 1020.02 1020.17 1020.37 1020.62 1020.88 1021.15 1021.40 1021.63 1021.81 1021.96 1022.05 1022.11 1022.13 1022.11 1022.07
1024.42 1024.63 1024.58 1024.27 1023.68 1022.85 1021.83 1020.68 1019.50 1018.37 1017.38 1016.59 1016.05 1015.78 1015.77 1016.00 1016.42 1016.96 1017.55 1018.13 1018.65 1019.08 1019.38 1019.57 1019.67 1019.70 1019.69 1019.70 1019.73 1019.83 1019.98 1020.20 1020.47 1020.77 1021.07 1021.37 1021.65 1021.88 1022.07 1022.21 1022.30 1022.35 1022.36 1022.34
1024.99 1025.12 1024.96 1024.49 1023.72 1022.68 1021.45 1020.10 1018.75 1017.50 1016.43 1015.63 1015.12 1014.93 1015.04 1015.42 1015.98 1016.65 1017.36 1018.04 1018.63 1019.10 1019.43 1019.63 1019.73 1019.77 1019.77 1019.77 1019.81 1019.91 1020.07 1020.30 1020.58 1020.89 1021.21 1021.53 1021.82 1022.09 1022.30 1022.47 1022.59 1022.66 1022.69 1022.68
1024.89 1024.91 1024.63 1024.02 1023.12 1021.96 1020.62 1019.19 1017.79 1016.52 1015.48 1014.72 1014.30 1014.21 1014.44 1014.93 1015.61 1016.39 1017.20 1017.97 1018.64 1019.18 1019.58 1019.85 1020.01 1020.10 1020.15 1020.20 1020.27 1020.38 1020.55 1020.77 1021.04 1021.33 1021.63 1021.93 1022.22 1022.48 1022.70 1022.88 1023.00 1023.08 1023.11 1023.10
1023.98 1023.86 1023.46 1022.77 1021.82 1020.65 1019.33 1017.97 1016.66 1015.52 1014.61 1014.00 1013.73 1013.78 1014.13 1014.74 1015.51 1016.38 1017.27 1018.11 1018.86 1019.49 1019.99 1020.35 1020.61 1020.80 1020.93 1021.05 1021.17 1021.30 1021.47 1021.66 1021.88 1022.11 1022.36 1022.61 1022.85 1023.08 1023.27 1023.42 1023.54 1023.60 1023.62 1023.59
1022.28 1022.01 1021.53 1020.82 1019.91 1018.85 1017.71 1016.56 1015.50 1014.62 1013.97 1013.61 1013.55 1013.79 1014.29 1015.01 1015.87 1016.81 1017.76 1018.66 1019.48 1020.19 1020.78 1021.26 1021.64 1021.93 1022.17 1022.35 1022.51 1022.66 1022.79 1022.93 1023.07 1023.22 1023.37 1023.53 1023.69 1023.84 1023.98 1024.09 1024.17 1024.20 1024.18 1024.11
1019.99 1019.61 1019.10 1018.45 1017.68 1016.85 1015.99 1015.19 1014.50 1014.00 1013.71 1013.68 1013.91 1014.37 1015.04 1015.88 1016.81 1017.80 1018.78 1019.73 1020.60 1021.37 1022.05 1022.63 1023.11 1023.50 1023.81 1024.06 1024.24 1024.36 1024.45 1024.50 1024.53 1024.55 1024.58 1024.61 1024.66 1024.72 1024.78 1024.83 1024.85 1024.83 1024.77 1024.65
1017.49 1017.08 1016.60 1016.08 1015.54 1015.01 1014.53 1014.14 1013.91 1013.85 1013.98 1014.32 1014.86 1015.57 1016.42 1017.36 1018.36 1019.38 1020.37 1021.33 1022.21 1023.03 1023.76 1024.40 1024.95 1025.41 1025.77 1026.03 1026.20 1026.28 1026.28 1026.22 1026.12 1026.00 1025.88 1025.78 1025.70 1025.65 1025.62 1025.60 1025.55 1025.47 1025.35 1025.17
1015.28 1014.91 1014.55 1014.22 1013.94 1013.75 1013.66 1013.72 1013.94 1014.32 1014.87 1015.58 1016.41 1017.35 1018.35 1019.39 1020.43 1021.45 1022.43 1023.36 1024.22 1025.03 1025.77 1026.42 1027.00 1027.47 1027.84 1028.08 1028.21 1028.21 1028.11 1027.93 1027.69 1027.42 1027.17 1026.93 1026.73 1026.58 1026.47 1026.36 1026.25 1026.11 1025.92 1025.67
1013.85 1013.60 1013.41 1013.31 1013.30 1013.43 1013.70 1014.14 1014.75 1015.51 1016.41 1017.41 1018.48 1019.59 1020.71 1021.80 1022.84 1023.82 1024.75 1025.61 1026.42 1027.17 1027.87 1028.49 1029.04 1029.48 1029.81 1030.00 1030.06 1029.97 1029.77 1029.47 1029.11 1028.72 1028.35 1028.00 1027.71 1027.47 1027.28 1027.12 1026.95 1026.75 1026.50 1026.19
1013.59 1013.54 1013.55 1013.66 1013.89 1014.26 1014.80 1015.50 1016.37 1017.38 1018.50 1019.69 1020.90 1022.10 1023.26 1024.34 1025.34 1026.25 1027.09 1027.85 1028.56 1029.22 1029.82 1030.37 1030.84 1031.21 1031.47 1031.59 1031.57 1031.41 1031.12 1030.73 1030.29 1029.82 1029.36 1028.95 1028.60 1028.31 1028.08 1027.86 1027.65 1027.40 1027.10 1026.73
Thickness
5564 5555 5554 5562 5564 5566 5563 5559 5558 5563 5567 5562 5560 5565 5571 5572 5570 5569 5569 5569 5569 5571 5572 5571 5569 5569 5568 5567 5566 5565 5565 5563 5562 5559 5557 5555 5554 5552 5550 5549 5548 5547 5547 5546
5549 5551 5562 5562 5560 5557 5555 5551 5552 5557 5559 5555 5553 5558 5565 5568 5567 5567 5565 5564 5564 5564 5563 5563 5562 5560 5560 5560 5559 5558 5558 5556 5554 5553 5550 5547 5545 5543 5542 5541 5541 5540 5539 5538
5550 5555 5558 5554 5551 5549 5548 5547 5548 5548 5547 5547 5544 5550 5559 5563 5563 5562 5561 5560 5560 5560 5558 5557 5555 5553 5552 5551 5551 5551 5550 5549 5547 5545 5542 5539 5536 5534 5533 5533 5533 5532 5531 5530
5542 5547 5549 5547 5544 5545 5543 5545 5543 5540 5533 5530 5535 5530 5548 5552 5554 5555 5554 5553 5552 5554 5553 5551 5549 5547 5545 5545 5544 5543 5543 5541 5539 5537 5535 5532 5530 5527 5526 5525 5524 5523 5522 5521
5535 5539 5540 5540 5541 5540 5538 5538 5535 5532 5526 5521 5524 5519 5537 5542 5544 5548 5549 5548 5546 5547 5546 5544 5542 5541 5539 5537 5536 5535 5534 5533 5531 5529 5527 5525 5522 5519 5517 5515 5514 5514 5513 5513
5528 5531 5533 5535 5535 5533 5530 5527 5523 5514 5511 5510 5522 5513 5527 5531 5540 5544 5544 5541 5538 5538 5537 5535 5533 5532 5530 5529 5528 5527 5526 5524 5523 5521 5519 5516 5514 5511 5509 5508 5506 5506 5505 5505
5519 5522 5524 5526 5525 5523 5521 5513 5501 5496 5486 5503 5516 5513 5524 5534 5537 5537 5536 5533 5530 5528 5526 5524 5523 5522 5521 5520 5519 5518 5517 5515 5514 5513 5510 5508 5506 5504 5503 5501 5500 5499 5498 5498
5511 5514 5517 5517 5519 5515 5514 5514 5503 5497 5494 5498 5504 5508 5522 5529 5528 5527 5527 5523 5521 5518 5516 5515 5514 5512 5511 5510 5509 5508 5507 5506 5505 5503 5501 5499 5498 5496 5495 5494 5492 5491 5491 5491
5505 5509 5510 5510 5512 5512 5508 5502 5507 5492 5478 5478 5494 5500 5512 5521 5518 5516 5515 5512 5510 5507 5506 5504 5504 5503 5502 5501 5500 5498 5497 5496 5495 5494 5492 5491 5489 5488 5487 5486 5484 5483 5482 5481
5499 5495 5498 5497 5501 5502 5502 5498 5486 5480 5473 5477 5492 5499 5508 5516 5512 5509 5506 5502 5500 5498 5497 5495 5493 5492 5491 5491 5490 5488 5487 5486 5485 5483 5483 5482 5480 5479 5477 5476 5475 5474 5473 5472
5489 5485 5482 5483 5484 5489 5486 5487 5484 5476 5473 5475 5480 5500 5511 5511 5508 5502 5497 5493 5490 5488 5487 5485 5482 5481 5480 5480 5479 5477 5476 5475 5474 5474 5473 5472 5470 5469 5468 5467 5466 5464 5463 5462
5477 5471 5468 5473 5477 5478 5480 5483 5478 5475 5465 5471 5480 5496 5505 5499 5495 5492 5488 5485 5482 5478 5474 5472 5471 5470 5469 5468 5467 5467 5466 5465 5464 5463 5462 5461 5460 5459 5458 5456 5456 5454 5454 5453
5468 5461 5459 5467 5467 5465 5466 5471 5472 5469 5463 5456 5461 5488 5492 5486 5483 5481 5477 5473 5470 5466 5463 5460 5459 5458 5457 5457 5456 5456 5455 5454 5453 5452 5451 5450 5448 5448 5447 5446 5445 5444 5443 5443
5462 5452 5458 5470 5476 5464 5459 5463 5462 5459 5453 5454 5468 5481 5481 5477 5473 5469 5465 5462 5457 5455 5452 5450 5447 5446 5446 5446 5445 5444 5443 5442 5441 5440 5439 5438 5438 5437 5436 5435 5434 5434 5433 5433
5447 5441 5441 5449 5453 5451 5453 5456 5453 5453 5458 5457 5469 5470 5477 5470 5462 5458 5454 5450 5447 5445 5443 5440 5438 5436 5435 5434 5434 5432 5431 5429 5429 5428 5427 5427 5426 5425 5425 5424 5423 5423 5422 5422
5432 5431 5429 5431 5438 5438 5440 5449 5449 5450 5452 5452 5457 5462 5465 5456 5449 5444 5441 5439 5436 5434 5432 5430 5428 5426 5424 5422 5422 5420 5419 5418 5417 5416 5416 5415 5414 5414 5413 5413 5412 5411 5411 5410
5416 5416 5418 5422 5421 5425 5429 5450 5450 5447 5446 5449 5454 5460 5448 5441 5437 5432 5429 5427 5425 5422 5420 5417 5414 5412 5410 5408 5408 5407 5407 5406 5405 5404 5404 5403 5402 5402 5402 5401 5400 5400 5400 5399
5406 5404 5402 5401 5404 5417 5451 5446 5445 5441 5438 5437 5441 5440 5434 5430 5421 5416 5415 5413 5411 5409 5406 5403 5400 5398 5396 5395 5394 5394 5394 5393 5392 5392 5391 5390 5389 5390 5389 5389 5389 5388 5388 5387
5402 5399 5389 5387 5391 5406 5428 5429 5425 5427 5428 5427 5426 5424 5417 5411 5405 5402 5400 5398 5396 5394 5392 5389 5386 5385 5382 5381 5381 5380 5380 5379 5379 5378 5378 5377 5377 5377 5377 5377 5377 5376 5376 5375
5390 5390 5383 5377 5385 5396 5429 5419 5414 5417 5416 5416 5413 5411 5404 5401 5400 5397 5388 5384 5381 5379 5376 5374 5372 5370 5369 5368 5367 5367 5365 5365 5364 5364 5364 5364 5364 5365 5365 5364 5364 5364 5364 5364
5371 5373 5373 5371 5374 5386 5398 5397 5400 5401 5412 5400 5396 5394 5391 5388 5388 5379 5372 5368 5365 5363 5361 5359 5357 5355 5354 5353 5353 5352 5350 5350 5350 5349 5349 5350 5351 5351 5352 5352 5351 5351 5352 5351
5365 5360 5358 5359 5365 5380 5381 5380 5384 5388 5382 5380 5378 5376 5372 5367 5364 5360 5355 5352 5350 5347 5345 5344 5342 5340 5339 5338 5338 5337 5336 5335 5335 5335 5335 5336 5336 5337 5338 5338 5339 5338 5338 5338
5354 5360 5360 5362 5372 5369 5362 5364 5363 5363 5363 5361 5359 5358 5355 5351 5346 5342 5338 5336 5334 5332 5330 5328 5327 5325 5324 5322 5322 5321 5321 5320 5320 5320 5320 5321 5322 5324 5324 5325 5325 5325 5325 5326
5341 5344 5346 5345 5349 5350 5347 5345 5345 5344 5344 5341 5340 5338 5337 5333 5329 5325 5323 5320 5317 5316 5314 5312 5311 5309 5308 5306 5306 5305 5304 5304 5304 5305 5306 5307 5308 5310 5311 5311 5312 5312 5313 5313
5332 5328 5330 5332 5335 5335 5334 5332 5331 5327 5325 5323 5320 5319 5317 5314 5310 5307 5305 5303 5300 5299 5297 5295 5294 5293 5292 5291 5290 5289 5288 5289 5289 5290 5292 5292 5294 5295 5297 5297 5298 5299 5300 5300
5318 5317 5320 5329 5326 5323 5324 5319 5315 5312 5309 5306 5303 5300 5298 5296 5293 5290 5287 5284 5282 5280 5279 5278 5276 5276 5275 5274 5274 5274 5273 5273 5274 5276 5277 5278 5279 5280 5281 5283 5285 5286 5287 5289